Location: Unspecified
(0.0000°N, 0.0000°E)
Time: 09:55:19
(UTC+00:00)

ARIANE 2 DEB - Pass Details

Date: 09 March 2026
Orbit: 598 x 35366 km, 8.4° (Epoch: 18 September)

Event Time Altitude Azimuth Distance (km) Brightness Sun altitude
Exits shadow 05:15:53 14° 282° (WNW) 7,648 ? -13.6°
Maximum altitude 07:32:27 84° 329° (NNW) 27,816 ? 20.4°
Drops below altitude 10° 14:55:27 10° 104° (ESE) 4,804 ? 48.6°
Sets 14:57:27 0° 101° (E) 5,203 ? 48.1°
